sat.trackr.live / text

‹ back to catalog

STARLINK-36952

NORAD 68062 · 2026-041Y

PAYLOAD ACTIVE UNKNOWN

§ Identity

Operator
Country
US
Launch date
2026-03-02
Launch site
AFETR
Launch vehicle
Mass (kg)
RCS (m²)

Purposes: comms

External: N2YO · Heavens-Above · Gunter

§ Orbital elements

Epoch: 2026-09-19T15:07:58.728576Z

Period
93.85 min
Inclination
53.1591°
Eccentricity
0.0000612
Mean motion
15.34400448 rev/d
Perigee alt
462.3 km
Apogee alt
463.1 km
Semi-major
6,840.8 km
B*
4.6577e-4
RAAN
223.9266°
Arg perigee
88.4750°
Mean anomaly
271.6323°
Rev number
3,115

§ Raw data

STARLINK-369521 68062U 26041Y   26262.63054084  .00015393  00000+0  46577-3 0  99952 68062  53.1591 223.9266 0000612  88.4750 271.6323 15.34400448 31156

JSON: /api/v1/satellites/68062 · /tle

For live sub-satellite position, see the globe view (requires WebGL).

§ Visibility from observer

Set your observer location to see the next 7 days of passes ≥ 10°. The values pass through the URL so the page stays shareable.

No JS? Fill the form by hand. The geolocation button needs JavaScript.